EW2785 Weather Reports


Display with metric or nautical units.
time (UTC)temp
F
wind
direction
speed
MPH
gust
MPH
rain 1hr
in
rain 24hr
in
rain mn
in
humidity
%
barometer
mb
20260509034505 36 167 0.0 0.0 0.00 0.00 0.00 82 1012.8
20260509033005 37 167 0.0 0.0 0.00 0.00 0.00 81 1012.8
20260509031504 38 167 0.0 0.0 0.00 0.00 0.00 80 1012.7
20260509030001 38 167 0.0 0.0 0.00 0.00 0.00 79 1012.7
20260509024608 39 167 0.0 0.0 0.00 0.00 0.00 78 1012.5
20260509023059 40 167 0.0 0.0 0.00 0.00 0.00 75 1012.3
20260509021559 41 167 0.0 0.0 0.00 0.00 0.00 73 1012.3
20260509020111 42 167 0.0 0.0 0.00 0.00 0.00 72 1012.1
20260509014555 43 167 0.0 0.0 0.00 0.00 0.00 70 1012.0
20260509013056 44 167 0.0 0.0 0.00 0.00 0.00 68 1011.8
20260509011558 46 167 0.0 0.0 0.00 0.00 0.00 66 1011.5
20260509010048 47 167 0.0 1.0 0.00 0.00 0.00 62 1011.2
20260509004549 48 167 0.0 0.0 0.00 0.00 0.00 59 1011.0
20260509003053 48 167 0.0 3.0 0.00 0.00 0.00 59 1010.8
20260509001544 49 179 0.0 5.0 0.00 0.00 0.00 59 1010.6
20260509000042 49 172 0.0 2.0 0.00 0.00 0.00 58 1010.5
20260508234541 50 169 0.0 1.0 0.00 0.00 0.00 58 1010.4
20260508233045 50 187 0.0 7.0 0.00 0.00 0.00 58 1010.2
20260508231546 50 163 0.0 7.0 0.00 0.00 0.00 56 1010.2
20260508230043 51 182 0.0 5.0 0.00 0.00 0.00 55 1010.1
20260508224550 51 151 0.0 6.0 0.00 0.00 0.00 53 1009.9
20260508223041 51 168 0.0 7.0 0.00 0.00 0.00 53 1009.9
20260508221539 52 169 1.0 9.0 0.00 0.00 0.00 47 1009.7
20260508220046 52 191 1.0 6.0 0.00 0.00 0.00 39 1009.6
20260508214544 53 187 1.0 7.0 0.00 0.00 0.00 39 1009.4
20260508213040 53 232 4.0 11.0 0.00 0.00 0.00 37 1009.4
20260508211537 54 258 0.0 3.0 0.00 0.00 0.00 40 1009.2
20260508210038 53 193 0.0 4.0 0.00 0.00 0.00 39 1009.3
20260508204538 53 295 3.0 10.0 0.00 0.00 0.00 38 1009.2
20260508203037 54 263 1.0 13.0 0.00 0.00 0.00 39 1009.1
20260508201536 54 216 2.0 9.0 0.00 0.00 0.00 38 1009.0
20260508200037 54 169 0.0 12.0 0.00 0.00 0.00 36 1009.0
20260508194534 54 290 0.0 6.0 0.00 0.00 0.00 42 1009.2
20260508193035 54 239 0.0 6.0 0.00 0.00 0.00 40 1009.1
20260508191543 53 207 0.0 7.0 0.00 0.00 0.00 40 1009.2
20260508190040 53 273 1.0 8.0 0.00 0.00 0.00 40 1009.2
20260508184536 54 170 0.0 9.0 0.00 0.00 0.00 39 1009.3
20260508183035 55 156 1.0 6.0 0.00 0.00 0.00 42 1009.3
20260508181539 52 207 2.0 8.0 0.00 0.00 0.00 40 1009.5
20260508180028 52 179 1.0 7.0 0.00 0.00 0.00 42 1009.5
20260508174531 52 244 1.0 13.0 0.00 0.00 0.00 40 1009.6
20260508173026 52 159 1.0 6.0 0.00 0.00 0.00 41 1009.6
20260508171527 52 180 1.0 7.0 0.00 0.00 0.00 42 1009.6
20260508170024 51 266 2.0 10.0 0.00 0.00 0.00 42 1009.6
20260508164523 51 184 2.0 8.0 0.00 0.00 0.00 42 1009.7
20260508163022 51 288 0.0 7.0 0.00 0.00 0.00 45 1009.8
20260508161538 51 298 0.0 4.0 0.00 0.00 0.00 43 1009.8
20260508160021 50 155 1.0 6.0 0.00 0.00 0.00 44 1009.9
20260508154522 51 276 2.0 7.0 0.00 0.00 0.00 47 1009.9
20260508153034 51 212 1.0 10.0 0.00 0.00 0.00 49 1010.0
20260508151517 50 294 3.0 9.0 0.00 0.00 0.00 50 1009.8
20260508150016 50 123 4.0 10.0 0.00 0.00 0.00 44 1009.6
20260508144516 49 243 1.0 14.0 0.00 0.00 0.00 47 1009.8
20260508143014 49 284 2.0 12.0 0.00 0.00 0.00 47 1009.9
20260508141512 48 163 6.0 18.0 0.00 0.00 0.00 47 1010.0
20260508140010 48 165 3.0 12.0 0.00 0.00 0.00 47 1009.9
20260508134511 48 153 3.0 10.0 0.00 0.00 0.00 51 1010.0
20260508133005 47 257 3.0 20.0 0.00 0.00 0.00 53 1010.1
20260508131501 46 195 0.0 12.0 0.00 0.00 0.00 56 1010.1
20260508130057 44 180 2.0 7.0 0.00 0.00 0.00 58 1010.2
20260508124553 43 164 2.0 7.0 0.00 0.00 0.00 61 1010.3
20260508123051 42 160 2.0 11.0 0.00 0.00 0.00 65 1010.4
20260508121547 40 195 0.0 4.0 0.00 0.00 0.00 80 1010.4
20260508120041 38 181 0.0 4.0 0.00 0.00 0.00 90 1010.4
20260508114538 37 355 0.0 2.0 0.00 0.00 0.00 91 1010.4
20260508113035 36 355 0.0 1.0 0.00 0.00 0.00 91 1010.3
20260508111539 35 355 0.0 1.0 0.00 0.00 0.00 91 1010.2
20260508110034 34 355 0.0 0.0 0.00 0.00 0.00 91 1010.1
20260508104530 33 355 0.0 0.0 0.00 0.00 0.00 91 1010.0
20260508103040 32 355 0.0 0.0 0.00 0.00 0.00 90 1009.9
20260508101527 32 355 0.0 0.0 0.00 0.00 0.00 91 1009.7
20260508100029 32 355 0.0 0.0 0.00 0.00 0.00 90 1009.5
20260508094523 32 355 0.0 2.0 0.00 0.00 0.00 90 1009.3
20260508093030 32 355 0.0 2.0 0.00 0.00 0.00 90 1009.3
20260508091521 32 355 0.0 2.0 0.00 0.00 0.00 90 1009.3
20260508090022 31 355 0.0 1.0 0.00 0.00 0.00 90 1009.2
20260508084519 31 355 0.0 0.0 0.00 0.00 0.00 89 1009.1
20260508083019 31 355 0.0 2.0 0.00 0.00 0.00 89 1009.0
20260508081519 31 355 0.0 1.0 0.00 0.00 0.00 88 1008.9
20260508080018 31 355 0.0 1.0 0.00 0.00 0.00 88 1008.9
20260508074517 31 355 0.0 1.0 0.00 0.00 0.00 87 1009.0
20260508073015 31 355 0.0 0.0 0.00 0.00 0.00 86 1008.8
20260508071516 31 355 0.0 0.0 0.00 0.00 0.00 86 1008.8
20260508070012 32 355 0.0 1.0 0.00 0.00 0.00 86 1008.9
20260508064511 32 355 0.0 0.0 0.00 0.00 0.00 85 1008.8
20260508063009 32 355 0.0 0.0 0.00 0.00 0.00 85 1008.9
20260508061507 33 355 0.0 0.0 0.00 0.00 0.00 85 1008.9
20260508060006 33 355 0.0 0.0 0.00 0.00 0.00 85 1008.9
20260508054510 34 355 0.0 0.0 0.00 0.00 0.00 85 1008.9
20260508053003 34 355 0.0 1.0 0.00 0.00 0.00 85 1008.9
20260508051501 34 355 0.0 0.0 0.00 0.00 0.00 83 1009.1
20260508050100 34 355 0.0 0.0 0.00 0.00 0.00 83 1009.0
20260508044557 34 355 0.0 0.0 0.00 0.00 0.00 82 1009.2
20260508043100 35 355 0.0 1.0 0.00 0.00 0.00 80 1009.3
20260508041553 35 355 0.0 0.0 0.00 0.00 0.00 79 1009.2
20260508040049 36 355 0.0 1.0 0.00 0.00 0.00 78 1009.2
20260508034551 37 355 0.0 0.0 0.00 0.00 0.00 77 1009.1